Volver al catálogo

RASSVET-2 NO. 2

ActivoComunicacionesSSO
NORAD 59780·PAYLOAD·🇷🇺 Russia
Este nombre de satélite aún no ha sido confirmado por fuentes oficiales.

Lanzado May 16, 2024 desde Plesetsk Cosmodrome

Loading…

Próximos Pases (próximas 24 horas)

TLE

ActualizadoSource: Space-Track

Época: Sep 14, 2026, 22:47 UTC

1 59780U 24092H   26257.94943861  .00000128  00000-0  64492-4 0  9992
2 59780  98.6796  16.9296 0011299 309.0562  50.9615 14.31875461121747

Sigue RASSVET-2 NO. 2 en tiempo real con AllMySat

Download on the App Store